Other Public Products
Issued by NWS Grand Forks, ND

Home | Current Version | Previous Version | Graphics & Text | Print | Product List | Glossary On
Versions: 1 2 3 4 5 6 7 8 9 10 11 12 13 14 15 16 17 18 19 20 21 22 23 24 25 26 27 28 29 30 31 32 33 34 35 36 37 38 39 40 41 42 43 44 45 46 47 48 49 50
000
FPUS83 KFGF 282231
OPUFGF
PRAIRIE TO PINES WEATHER ROUNDUP
NATIONAL WEATHER SERVICE EASTERN NORTH DAKOTA/GRAND FORKS ND
400 PM CST FRI NOV 28 2014

 **SATELLITE DATA USED TO AUGMENT SKY COVER AT AUTOMATED STATIONS**
 *****  WEATHER ACROSS EASTERN NORTH DAKOTA  *****

CITY           SKY/WX    TMP DP  RH WIND       PRES   REMARKS
GRAND FORKS    CLOUDY    15   9  76 SE9       29.79F WCI   3
GRAND FORKS AF CLOUDY    14  10  85 SE12      29.78F WCI   0
GRAND CITY NWS   N/A     16 N/A N/A SE12        N/A  WCI   3
BUXTON           N/A     16  11  83 E8          N/A  WCI   5
DEVILS LAKE    MOCLDY    12   1  62 SE14      29.67F WCI  -3
FARGO          PTCLDY    18  10  71 E9        29.77F WCI   7
WAHPETON ARPT  PTCLDY    18  12  79 SE9       29.77F WCI   6
$$

 *****  WEATHER ACROSS CENTRAL AND WESTERN NORTH DAKOTA  *****

CITY           SKY/WX    TMP DP  RH WIND       PRES   REMARKS
JAMESTOWN      CLOUDY    15   9  76 SE12      29.68F WCI   2
BISMARCK       MOCLDY    22  16  78 E9        29.61F WCI  12
MINOT          MOCLDY    14   8  77 SE16      29.56F WCI  -2
MINOT AFB      FLURRIES  12   9  85 SE18      29.56F WCI  -5
GARRISON         N/A     18  14  84 SE13      29.56S WCI   5
WILLISTON      CLEAR     25  19  78 SE3       29.47F
DICKINSON      MOCLDY    40  32  73 S9        29.45F
HETTINGER      CLOUDY    41  31  67 E5        29.51F
$$

 *****  OTHER OBSERVATIONS NORTHEAST NORTH DAKOTA  *****

CITY           SKY/WX    TMP DP  RH WIND       PRES   REMARKS
WALHALLA         N/A     14  14 100 SE8       29.76F FOG     WCI   3
LANGDON        CLOUDY    10   7  85 SE16      29.69F WCI  -7
CAVALIER       LGT SNOW  16  12  86 SE6       29.78F VSB 3/4 WCI   7
GRAFTON        CLOUDY    14  10  85 SE13      29.79F FOG     WCI   0
CANDO          CLOUDY    14   9  79 SE16      29.68F WCI  -2
FORT TOTTEN    NOT AVBL
ROLLA          FLURRIES  10   7  85 SE12G17   29.66S WCI  -4
RUGBY          CLOUDY    12   9  85 SE20      29.62F WCI  -6
 ***** THE ABOVE OBSERVATIONS ARE NON NWS ARE NOT QUALITY
        CONTROLLED AND MAY MIS-REPORT RAIN FOR SNOW...
$$

 *****  OTHER OBSERVATIONS SOUTHEAST NORTH DAKOTA *****

CITY           SKY/WX    TMP DP  RH WIND       PRES   REMARKS
COOPERSTOWN    NOT AVBL
VALLEY CITY    CLOUDY    14  10  85 SE12      29.71F WCI   0
OAKES            N/A     14  12  92 E17       29.69S WCI  -3
GWINNER        PTCLDY    19  12  73 E13       29.71F WCI   7
SHEYENNE NWR     N/A     16  11  80 SE10      29.95S WCI   4
BUFFALO        NOT AVBL
WYNDMERE         N/A     18  12  79 E10         N/A  WCI   6
 ***** THE ABOVE OBSERVATIONS ARE NON NWS ARE NOT QUALITY
       CONTROLLED AND MAY MIS-REPORT RAIN FOR SNOW...
$$

  *****  WEATHER ACROSS NORTHERN MINNESOTA  *****

CITY           SKY/WX    TMP DP  RH WIND       PRES   REMARKS
FLAG ISLAND    CLOUDY    12   7  79 E6        29.83F WCI   3
WARROAD        FLURRIES  16   9  73 E12       29.82F WCI   3
ROSEAU         CLOUDY    18  10  73 E13       29.80F WCI   4
HALLOCK        MOCLDY    19  10  68 SE9       29.79F WCI   9
THF RVR FALLS  CLOUDY    16  10  79 E10       29.78F WCI   3
HALSTAD          N/A     17  10  74 SE10        N/A  WCI   5
FOSSTON        CLOUDY    14   7  73 E7        29.78F WCI   4
BAUDETTE       CLOUDY    15   8  73 E12       29.83F WCI   2
WASKISH        CLOUDY    16  10  79 CALM      29.81F
CROOKSTON      LGT SNOW  16  10  79 SE10      29.80F WCI   3
$$
  *****  WEATHER ACROSS CENTRAL AND WEST MINNESOTA  *****

CITY           SKY/WX    TMP DP  RH WIND       PRES   REMARKS
BEMIDJI        CLOUDY    14   8  78 E8        29.79S WCI   3
PARK RAPIDS    CLOUDY    15   8  73 E9        29.78S WCI   3
WADENA         CLOUDY    16   9  73 E7        29.78R WCI   6
DETROIT LAKES  CLOUDY    18  12  79 SE10      29.76F WCI   6
MOORHEAD       PTCLDY    18  12  79 E9        29.77F WCI   6
FERGUS FALLS   PTCLDY    16   9  73 SE7       29.80S WCI   6
ELBOW LAKE     CLOUDY    17  11  80 E13       29.76S WCI   3
MORRIS MN      PTCLDY    19  12  73 SE10      29.74F WCI   8
STAPLES        CLOUDY    16   9  73 E6        29.79F WCI   7
WHEATON        PTCLDY    18  12  79 E8        29.78F WCI   7
$$
  *****  WEATHER ELSEWHERE ACROSS MINNESOTA  *****

CITY           SKY/WX    TMP DP  RH WIND       PRES   REMARKS
DULUTH         LGT SNOW  15  11  83 E8        29.83F WCI   4
INTRNTL FALLS  CLOUDY    15   7  70 E7        29.85F WCI   5
ELY            CLOUDY    18  12  79 E3        29.85S
CLOQUET        CLOUDY    16  10  79 CALM      29.85S
BRAINERD       CLOUDY    15   9  76 VRB6      29.83S WCI   6
HIBBING        LGT SNOW  18  11  74 SE6       29.84F WCI  10
ALEXANDRIA     CLOUDY    17  11  77 E13       29.76S WCI   4
SAINT CLOUD    CLOUDY    20  13  74 E5        29.82F WCI  13
MINNEAPOLIS    CLOUDY    22  15  75 SE10      29.85S WCI  11
$$

  *****  WEATHER ACROSS SOUTH DAKOTA  *****

CITY           SKY/WX    TMP DP  RH WIND       PRES   REMARKS
SIOUX FALLS    MOCLDY    34  28  79 SE8       29.66S
BROOKINGS      NOT AVBL
WATERTOWN      PTCLDY    18  13  80 E8        29.67R WCI   8
HURON          PTCLDY    38  26  62 CALM      29.66R
SISSETON         N/A     18  14  84 S10       29.73F WCI   6
ABERDEEN       PTCLDY    21  14  74 E9        29.68F WCI  11
MITCHELL       CLEAR     42  29  59 E6        29.65F
PIERRE         CLEAR     41  25  53 CALM      29.60F
MOBRIDGE       PTCLDY    25  19  78 E10       29.59S WCI  15
RAPID CITY     MOSUNNY   58  25  28 W10       29.56S
$$

  *****  SOME WEATHER IN NEARBY STATES *****

CITY           SKY/WX    TMP DP  RH WIND       PRES   REMARKS
GLASGOW MT     PTCLDY    29  24  82 NW6       29.41R WCI  23
GREAT FALLS MT PTSUNNY   54  33  45 SW24G32   29.40R
CHEYENNE WY    PTSUNNY   59  10  14 W24G37    29.82F
SCOTTSBLUFF NE CLOUDY    63  21  20 W12       29.71F
OMAHA NE       PTCLDY    51  32  48 S13       29.71S
DES MOINES IA  PTCLDY    44  30  57 SE8       29.78F
DAVENPORT IA   PTCLDY    34  26  72 SE8       29.91F
CHICAGO IL     CLOUDY    31  24  75 S16G24    29.98F WCI  20
EAU CLAIRE WI  CLOUDY    23  15  71 E7        29.87F WCI  15
LA CROSSE WI   MIX PCPN  29  20  69 SE9       29.89R WCI  20
$$

  *****  SOME NATIONAL WEATHER *****

CITY           SKY/WX    TMP DP  RH WIND       PRES   REMARKS
LA GUARDIA NY  PTCLDY    33  17  51 NW15      30.21R WCI  23
RALEIGH NC     PTCLDY    41  20  43 CALM      30.30R
ATLANTA GA     CLEAR     49  12  22 W3        30.28F
NEW ORLEANS LA MOSUNNY   59  42  53 SE10      30.29F
OKLAHOMA CITY  PTSUNNY   67  39  35 SW24G33   29.89F
ALBUQUERQUE NM MOSUNNY   60  19  20 S10       30.12F
SALT LAKE CITY PTSUNNY   66  13  12 S21G28    29.86F
LOS ANGELES CA MOSUNNY   74  47  38 W9        29.91F
BOISE ID       MOSUNNY   63  28  26 SE6       29.70F
SEATTLE WA     LGT RAIN  39  37  93 NE15      29.46F
$$

*** WEATHER ACROSS MANITOBA...SASKATCHEWAN AND ONTARIO ***
                ***ONTARIO***

CITY           SKY/WX    TMP DP  RH WIND       PRES   REMARKS
GERALDTON      PTCLDY     1  -4  78 S1        29.99F
THUNDER BAY    CLOUDY    16   9  73 N3        30.01S
SIOUX LOOKOUT  CLOUDY     7  -4  61 E3        29.93F
TORONTO        CLOUDY    25  14  63 W9        30.20S WCI  15
BIG TROUT LK   CLEAR    -17 -22  76 W2        30.04F
PICKLE LAKE    CLOUDY     1  -6  71 E2        29.96F
DRYDEN         CLOUDY    10   0  61 E6        29.89  WCI   1
KENORA         CLOUDY    10   0  61 E6        29.85F WCI   1
$$
                *** MANITOBA***

CITY           SKY/WX    TMP DP  RH WIND       PRES   REMARKS
BRANDON        LGT SNOW   7   3  85 E17       29.69F DRFTSNOWWCI -12
DAUPHIN        LGT SNOW   7   3  85 E12       29.80F VSB 5/8 WCI  -9
ISLAND LAKE    CLOUDY    -9 -18  64 CALM      30.05S
PILOT MOUND      N/A     10   7  85 E14         N/A  WCI  -5
THE PAS        LGT SNOW  -6 -13  71 E8        29.94  VSB 3/4 WCI -21
THOMPSON       MOCLDY   -13 -18  77 SW2       30.05S
WINNIPEG       FLURRIES  12   3  67 E10       29.84S WCI  -1
LYNN LAKE      CLOUDY   -11 -17  77 NW5       29.97F WCI -23
CHURCHILL      PTCLDY   -13 -18  77 W12       29.99  WCI -33
GILLAM         PTCLDY   -15 -20  76 SW5       30.04F WCI -27
$$
                ***SASKATCHEWAN***

CITY           SKY/WX    TMP DP  RH WIND       PRES   REMARKS
ESTEVAN        FLURRIES  12   7  79 SE16G24   29.50F WCI  -4
KINDERSLEY     LGT SNOW   1  -4  78 N20       29.59R DRFTSNOWWCI -20
LLOYDMINSTER   FLURRIES  -4  -9  77 N9        29.69R WCI -20
PRINCE ALBERT  LGT SNOW  -2  -9  71 E12G18    29.74F DRFTSNOWWCI -20
REGINA         LGT SNOW  10   7  85 SE10      29.52R DRFTSNOWWCI  -3


USA.gov is the U.S. government's official web portal to all federal, state and local government web resources and services.